Location: Clinton NY
(43.0598°N, 75.3602°W)
Time: 01:23:56
(UTC-04:00)

ISS - All Passes

Search period start: 04 August 2015 00:00
Search period end: 14 August 2015 00:00
Orbit: 401 x 403 km, 51.6° (Epoch: 03 August)

Date Brightness Start Highest point End Pass type
(mag) Time Alt. Az. Time Alt. Az. Time Alt. Az.
04 Aug - 01:15:09 10° NW 01:18:00 27° NNE 01:20:51 10° ENE visible
04 Aug - 02:51:24 10° WNW 02:54:38 63° SW 02:57:52 10° SE night (unlit)
04 Aug - 19:31:42 10° S 19:34:17 22° SE 19:36:55 10° E daylight
04 Aug - 21:07:22 10° WSW 21:10:33 49° NNW 21:13:43 10° NE visible
04 Aug - 22:45:04 10° WNW 22:47:32 19° N 22:49:58 10° NE visible
05 Aug - 00:22:10 10° NW 00:24:45 21° NNE 00:27:21 10° ENE visible
05 Aug - 01:58:21 10° NW 02:01:37 71° NNE 02:04:52 10° ESE night (unlit)
05 Aug - 03:35:44 10° W 03:37:43 15° SW 03:39:37 10° S night (unlit)
05 Aug - 18:40:10 10° SSE 18:41:25 12° SE 18:42:48 10° ESE daylight
05 Aug - 20:14:12 10° WSW 20:17:27 86° NNW 20:20:44 10° ENE daylight
05 Aug - 21:51:34 10° WNW 21:54:14 23° NNW 21:56:54 10° NE visible
05 Aug - 23:29:05 10° NW 23:31:28 18° N 23:33:52 10° NE visible
06 Aug - 01:05:22 10° NW 01:08:30 42° NNE 01:11:37 10° E visible
06 Aug - 02:42:00 10° WNW 02:44:50 27° SW 02:47:39 10° SSE night (unlit)
06 Aug - 19:21:17 10° SW 19:24:26 50° SE 19:27:37 10° ENE daylight
06 Aug - 20:58:04 10° W 21:01:00 29° NNW 21:03:55 10° NE visible
06 Aug - 22:35:49 10° NW 22:38:09 18° N 22:40:28 10° NE visible
07 Aug - 00:12:24 10° NW 00:15:18 29° NNE 00:18:13 10° E visible
07 Aug - 01:48:41 10° WNW 01:51:53 52° SW 01:55:04 10° SE night (unlit)
07 Aug - 18:28:43 10° SSW 18:31:29 26° SE 18:34:17 10° ENE daylight
07 Aug - 20:04:39 10° W 20:07:48 43° NNW 20:10:56 10° NE daylight
07 Aug - 21:42:25 10° NW 21:44:49 19° N 21:47:13 10° NE visible
07 Aug - 23:19:24 10° NW 23:22:02 22° NNE 23:24:42 10° ENE visible
08 Aug - 00:55:34 10° NW 00:58:51 82° NNE 01:02:06 10° ESE visible
08 Aug - 02:33:20 10° WSW 02:34:53 13° SW 02:36:20 10° SSW night (unlit)
08 Aug - 17:36:47 10° SSE 17:38:34 14° SE 17:40:27 10° E daylight
08 Aug - 19:11:24 10° WSW 19:14:39 74° NNW 19:17:55 10° NE daylight
08 Aug - 20:48:54 10° WNW 20:51:30 21° NNW 20:54:05 10° NE visible
08 Aug - 22:26:18 10° NW 22:28:43 19° N 22:31:10 10° NE visible
09 Aug - 00:02:33 10° NW 00:05:43 47° NNE 00:08:53 10° ESE visible
09 Aug - 01:39:18 10° W 01:41:59 23° SW 01:44:38 10° S night (unlit)
09 Aug - 18:18:22 10° SW 18:21:35 60° SE 18:24:48 10° ENE daylight
09 Aug - 19:55:21 10° W 19:58:12 27° NNW 20:01:03 10° NE daylight
09 Aug - 21:33:03 10° NW 21:35:22 18° N 21:37:42 10° NE visible
09 Aug - 23:09:33 10° NW 23:12:31 31° NNE 23:15:29 10° E visible
10 Aug - 00:45:53 10° WNW 00:49:01 44° SW 00:52:07 10° SE visible
10 Aug - 17:25:40 10° SSW 17:28:34 31° SE 17:31:30 10° ENE daylight
10 Aug - 19:01:52 10° W 19:04:56 38° NNW 19:08:02 10° NE daylight
10 Aug - 20:39:38 10° NW 20:42:00 18° N 20:44:22 10° NE visible
10 Aug - 22:16:30 10° NW 22:19:13 23° NNE 22:21:56 10° ENE visible
10 Aug - 23:52:41 10° WNW 23:55:58 85° SW 23:59:13 10° SE visible
11 Aug - 01:31:09 10° WSW 01:31:57 11° SW 01:32:37 10° SW night (unlit)
11 Aug - 16:33:28 10° S 16:35:37 17° SE 16:37:49 10° E daylight
11 Aug - 18:08:31 10° WSW 18:11:45 63° NNW 18:15:00 10° NE daylight
11 Aug - 19:46:05 10° WNW 19:48:38 20° N 19:51:11 10° NE daylight
11 Aug - 21:23:24 10° NW 21:25:52 20° N 21:28:22 10° ENE visible
11 Aug - 22:59:37 10° NW 23:02:49 54° NNE 23:06:01 10° ESE visible
12 Aug - 00:36:32 10° W 00:39:01 20° SW 00:41:27 10° S night (unlit)
12 Aug - 17:15:23 10° SW 17:18:37 71° SE 17:21:52 10° ENE daylight
12 Aug - 18:52:30 10° WNW 18:55:18 25° NNW 18:58:05 10° NE daylight
12 Aug - 20:30:09 10° NW 20:32:29 18° N 20:34:50 10° NE daylight
12 Aug - 22:06:34 10° NW 22:09:35 34° NNE 22:12:37 10° E visible
12 Aug - 23:42:59 10° WNW 23:46:02 37° SW 23:49:04 10° SSE visible
13 Aug - 16:22:32 10° SSW 16:25:34 36° SE 16:28:36 10° ENE daylight
13 Aug - 17:58:58 10° W 18:01:59 35° NNW 18:05:02 10° NE daylight
13 Aug - 19:36:44 10° NW 19:39:05 18° N 19:41:26 10° NE daylight
13 Aug - 21:13:30 10° NW 21:16:17 25° NNE 21:19:04 10° ENE visible
13 Aug - 22:49:42 10° WNW 22:52:58 73° SW 22:56:12 10° SE visible
